﻿測定場所 (Monitoring sites),日付 (Measurement date),時間 (Measurement time),線量率 最大値 (max) μGy/h,線量率 最小値 (min) μGy/h,線量率 平均値 (average) μGy/h,
江戸川 (Edogawa),2014-03-30,23:01～24:00,0.0816,0.0712,0.0750,
江戸川 (Edogawa),2014-03-30,22:01～23:00,0.0824,0.0724,0.0776,
江戸川 (Edogawa),2014-03-30,21:01～22:00,0.0919,0.0767,0.0848,
江戸川 (Edogawa),2014-03-30,20:01～21:00,0.0941,0.0718,0.0822,
江戸川 (Edogawa),2014-03-30,19:01～20:00,0.0798,0.0694,0.0738,
江戸川 (Edogawa),2014-03-30,18:01～19:00,0.0785,0.0701,0.0731,
江戸川 (Edogawa),2014-03-30,17:01～18:00,0.0786,0.0712,0.0744,
江戸川 (Edogawa),2014-03-30,16:01～17:00,0.0814,0.0723,0.0757,
江戸川 (Edogawa),2014-03-30,15:01～16:00,0.0826,0.0708,0.0776,
江戸川 (Edogawa),2014-03-30,14:01～15:00,0.0898,0.0742,0.0833,
江戸川 (Edogawa),2014-03-30,13:01～14:00,0.0923,0.0762,0.0857,
江戸川 (Edogawa),2014-03-30,12:01～13:00,0.0821,0.0725,0.0768,
江戸川 (Edogawa),2014-03-30,11:01～12:00,0.0794,0.0709,0.0750,
江戸川 (Edogawa),2014-03-30,10:01～11:00,0.0796,0.0716,0.0748,
江戸川 (Edogawa),2014-03-30,09:01～10:00,0.0802,0.0708,0.0743,
江戸川 (Edogawa),2014-03-30,08:01～09:00,0.0806,0.0713,0.0742,
江戸川 (Edogawa),2014-03-30,07:01～08:00,0.0838,0.0726,0.0762,
江戸川 (Edogawa),2014-03-30,06:01～07:00,0.0838,0.0724,0.0771,
江戸川 (Edogawa),2014-03-30,05:01～06:00,0.0855,0.0718,0.0784,
江戸川 (Edogawa),2014-03-30,04:01～05:00,0.0921,0.0780,0.0848,
江戸川 (Edogawa),2014-03-30,03:01～04:00,0.0904,0.0773,0.0823,
江戸川 (Edogawa),2014-03-30,02:01～03:00,0.0831,0.0747,0.0789,
江戸川 (Edogawa),2014-03-30,01:01～02:00,0.0840,0.0717,0.0762,
江戸川 (Edogawa),2014-03-30,00:01～01:00,0.0827,0.0715,0.0754,
江戸川 (Edogawa),2014-03-29,23:01～24:00,0.0823,0.0722,0.0757,
江戸川 (Edogawa),2014-03-29,22:01～23:00,0.0824,0.0715,0.0754,
江戸川 (Edogawa),2014-03-29,21:01～22:00,0.0818,0.0717,0.0760,
江戸川 (Edogawa),2014-03-29,20:01～21:00,0.0795,0.0721,0.0756,
江戸川 (Edogawa),2014-03-29,19:01～20:00,0.0798,0.0707,0.0754,
江戸川 (Edogawa),2014-03-29,18:01～19:00,0.0812,0.0715,0.0761,
江戸川 (Edogawa),2014-03-29,17:01～18:00,0.0830,0.0726,0.0768,
江戸川 (Edogawa),2014-03-29,16:01～17:00,0.0827,0.0718,0.0766,
江戸川 (Edogawa),2014-03-29,15:01～16:00,0.0841,0.0723,0.0767,
江戸川 (Edogawa),2014-03-29,14:01～15:00,0.0818,0.0722,0.0765,
江戸川 (Edogawa),2014-03-29,13:01～14:00,0.0824,0.0731,0.0766,
江戸川 (Edogawa),2014-03-29,12:01～13:00,0.0823,0.0725,0.0765,
江戸川 (Edogawa),2014-03-29,11:01～12:00,0.0857,0.0728,0.0770,
江戸川 (Edogawa),2014-03-29,10:01～11:00,0.0830,0.0711,0.0761,
江戸川 (Edogawa),2014-03-29,09:01～10:00,0.0819,0.0719,0.0772,
江戸川 (Edogawa),2014-03-29,08:01～09:00,0.0815,0.0732,0.0764,
江戸川 (Edogawa),2014-03-29,07:01～08:00,0.0813,0.0718,0.0757,
江戸川 (Edogawa),2014-03-29,06:01～07:00,0.0814,0.0718,0.0758,
江戸川 (Edogawa),2014-03-29,05:01～06:00,0.0840,0.0707,0.0757,
江戸川 (Edogawa),2014-03-29,04:01～05:00,0.0804,0.0701,0.0753,
江戸川 (Edogawa),2014-03-29,03:01～04:00,0.0840,0.0717,0.0759,
江戸川 (Edogawa),2014-03-29,02:01～03:00,0.0817,0.0717,0.0764,
江戸川 (Edogawa),2014-03-29,01:01～02:00,0.0815,0.0717,0.0757,
江戸川 (Edogawa),2014-03-29,00:01～01:00,0.0822,0.0707,0.0759,
江戸川 (Edogawa),2014-03-28,23:01～24:00,0.0824,0.0720,0.0761,
江戸川 (Edogawa),2014-03-28,22:01～23:00,0.0831,0.0720,0.0755,
江戸川 (Edogawa),2014-03-28,21:01～22:00,0.0827,0.0716,0.0754,
江戸川 (Edogawa),2014-03-28,20:01～21:00,0.0800,0.0713,0.0752,
江戸川 (Edogawa),2014-03-28,19:01～20:00,0.0821,0.0715,0.0758,
江戸川 (Edogawa),2014-03-28,18:01～19:00,0.0812,0.0712,0.0757,
江戸川 (Edogawa),2014-03-28,17:01～18:00,0.0819,0.0716,0.0760,
江戸川 (Edogawa),2014-03-28,16:01～17:00,0.0829,0.0722,0.0766,
江戸川 (Edogawa),2014-03-28,15:01～16:00,0.0827,0.0727,0.0767,
江戸川 (Edogawa),2014-03-28,14:01～15:00,0.0823,0.0723,0.0766,
江戸川 (Edogawa),2014-03-28,13:01～14:00,0.0841,0.0706,0.0760,
江戸川 (Edogawa),2014-03-28,12:01～13:00,0.0830,0.0725,0.0759,
江戸川 (Edogawa),2014-03-28,11:01～12:00,0.0834,0.0715,0.0750,
江戸川 (Edogawa),2014-03-28,10:01～11:00,0.0803,0.0698,0.0749,
江戸川 (Edogawa),2014-03-28,09:01～10:00,0.0780,0.0697,0.0735,
江戸川 (Edogawa),2014-03-28,08:01～09:00,0.0816,0.0703,0.0749,
江戸川 (Edogawa),2014-03-28,07:01～08:00,0.0817,0.0719,0.0754,
江戸川 (Edogawa),2014-03-28,06:01～07:00,0.0814,0.0707,0.0746,
江戸川 (Edogawa),2014-03-28,05:01～06:00,0.0807,0.0715,0.0750,
江戸川 (Edogawa),2014-03-28,04:01～05:00,0.0810,0.0704,0.0751,
江戸川 (Edogawa),2014-03-28,03:01～04:00,0.0807,0.0703,0.0748,
江戸川 (Edogawa),2014-03-28,02:01～03:00,0.0807,0.0712,0.0743,
江戸川 (Edogawa),2014-03-28,01:01～02:00,0.0805,0.0719,0.0747,
江戸川 (Edogawa),2014-03-28,00:01～01:00,0.0792,0.0708,0.0741,
江戸川 (Edogawa),2014-03-27,23:01～24:00,0.0805,0.0696,0.0741,
江戸川 (Edogawa),2014-03-27,22:01～23:00,0.0766,0.0701,0.0736,
江戸川 (Edogawa),2014-03-27,21:01～22:00,0.0792,0.0704,0.0742,
江戸川 (Edogawa),2014-03-27,20:01～21:00,0.0806,0.0708,0.0741,
江戸川 (Edogawa),2014-03-27,19:01～20:00,0.0799,0.0701,0.0742,
江戸川 (Edogawa),2014-03-27,18:01～19:00,0.0817,0.0705,0.0745,
江戸川 (Edogawa),2014-03-27,17:01～18:00,0.0793,0.0713,0.0746,
江戸川 (Edogawa),2014-03-27,16:01～17:00,0.0785,0.0718,0.0744,
江戸川 (Edogawa),2014-03-27,15:01～16:00,0.0796,0.0689,0.0752,
江戸川 (Edogawa),2014-03-27,14:01～15:00,0.0866,0.0724,0.0782,
江戸川 (Edogawa),2014-03-27,13:01～14:00,0.0908,0.0796,0.0848,
江戸川 (Edogawa),2014-03-27,12:01～13:00,0.0902,0.0770,0.0835,
江戸川 (Edogawa),2014-03-27,11:01～12:00,0.0924,0.0770,0.0848,
江戸川 (Edogawa),2014-03-27,10:01～11:00,0.0817,0.0734,0.0766,
江戸川 (Edogawa),2014-03-27,09:01～10:00,0.0816,0.0727,0.0773,
江戸川 (Edogawa),2014-03-27,08:01～09:00,0.0828,0.0702,0.0772,
江戸川 (Edogawa),2014-03-27,07:01～08:00,0.0822,0.0716,0.0758,
江戸川 (Edogawa),2014-03-27,06:01～07:00,0.0832,0.0700,0.0753,
江戸川 (Edogawa),2014-03-27,05:01～06:00,0.0811,0.0714,0.0761,
江戸川 (Edogawa),2014-03-27,04:01～05:00,0.0821,0.0724,0.0760,
江戸川 (Edogawa),2014-03-27,03:01～04:00,0.0817,0.0723,0.0773,
江戸川 (Edogawa),2014-03-27,02:01～03:00,0.0856,0.0737,0.0788,
江戸川 (Edogawa),2014-03-27,01:01～02:00,0.0828,0.0718,0.0773,
江戸川 (Edogawa),2014-03-27,00:01～01:00,0.0818,0.0716,0.0764,
江戸川 (Edogawa),2014-03-26,23:01～24:00,0.0811,0.0720,0.0760,
江戸川 (Edogawa),2014-03-26,22:01～23:00,0.0834,0.0728,0.0762,
江戸川 (Edogawa),2014-03-26,21:01～22:00,0.0796,0.0718,0.0754,
江戸川 (Edogawa),2014-03-26,20:01～21:00,0.0815,0.0709,0.0755,
江戸川 (Edogawa),2014-03-26,19:01～20:00,0.0818,0.0725,0.0759,
江戸川 (Edogawa),2014-03-26,18:01～19:00,0.0801,0.0719,0.0750,
江戸川 (Edogawa),2014-03-26,17:01～18:00,0.0821,0.0720,0.0766,
江戸川 (Edogawa),2014-03-26,16:01～17:00,0.0823,0.0712,0.0765,
江戸川 (Edogawa),2014-03-26,15:01～16:00,0.0825,0.0723,0.0763,
江戸川 (Edogawa),2014-03-26,14:01～15:00,0.0824,0.0722,0.0772,
江戸川 (Edogawa),2014-03-26,13:01～14:00,0.0819,0.0729,0.0766,
江戸川 (Edogawa),2014-03-26,12:01～13:00,0.0866,0.0739,0.0782,
江戸川 (Edogawa),2014-03-26,11:01～12:00,0.0837,0.0724,0.0769,
江戸川 (Edogawa),2014-03-26,10:01～11:00,0.0826,0.0733,0.0772,
江戸川 (Edogawa),2014-03-26,09:01～10:00,0.0836,0.0732,0.0773,
江戸川 (Edogawa),2014-03-26,08:01～09:00,0.0800,0.0723,0.0760,
江戸川 (Edogawa),2014-03-26,07:01～08:00,0.0816,0.0721,0.0770,
江戸川 (Edogawa),2014-03-26,06:01～07:00,0.0841,0.0719,0.0762,
江戸川 (Edogawa),2014-03-26,05:01～06:00,0.0826,0.0717,0.0767,
江戸川 (Edogawa),2014-03-26,04:01～05:00,0.0815,0.0717,0.0765,
江戸川 (Edogawa),2014-03-26,03:01～04:00,0.0820,0.0725,0.0761,
江戸川 (Edogawa),2014-03-26,02:01～03:00,0.0848,0.0722,0.0765,
江戸川 (Edogawa),2014-03-26,01:01～02:00,0.0836,0.0719,0.0764,
江戸川 (Edogawa),2014-03-26,00:01～01:00,0.0824,0.0722,0.0767,
江戸川 (Edogawa),2014-03-25,23:01～24:00,0.0810,0.0725,0.0759,
江戸川 (Edogawa),2014-03-25,22:01～23:00,0.0807,0.0711,0.0761,
江戸川 (Edogawa),2014-03-25,21:01～22:00,0.0820,0.0722,0.0762,
江戸川 (Edogawa),2014-03-25,20:01～21:00,0.0844,0.0718,0.0758,
江戸川 (Edogawa),2014-03-25,19:01～20:00,0.0822,0.0724,0.0767,
江戸川 (Edogawa),2014-03-25,18:01～19:00,0.0808,0.0717,0.0760,
江戸川 (Edogawa),2014-03-25,17:01～18:00,0.0820,0.0718,0.0763,
江戸川 (Edogawa),2014-03-25,16:01～17:00,0.0829,0.0729,0.0774,
江戸川 (Edogawa),2014-03-25,15:01～16:00,0.0831,0.0718,0.0771,
江戸川 (Edogawa),2014-03-25,14:01～15:00,0.0824,0.0730,0.0772,
江戸川 (Edogawa),2014-03-25,13:01～14:00,0.0844,0.0724,0.0770,
江戸川 (Edogawa),2014-03-25,12:01～13:00,0.0818,0.0728,0.0770,
江戸川 (Edogawa),2014-03-25,11:01～12:00,0.0835,0.0726,0.0769,
江戸川 (Edogawa),2014-03-25,10:01～11:00,0.0837,0.0728,0.0774,
江戸川 (Edogawa),2014-03-25,09:01～10:00,0.0837,0.0724,0.0772,
江戸川 (Edogawa),2014-03-25,08:01～09:00,0.0814,0.0720,0.0762,
江戸川 (Edogawa),2014-03-25,07:01～08:00,0.0818,0.0724,0.0762,
江戸川 (Edogawa),2014-03-25,06:01～07:00,0.0838,0.0712,0.0759,
江戸川 (Edogawa),2014-03-25,05:01～06:00,0.0817,0.0713,0.0762,
江戸川 (Edogawa),2014-03-25,04:01～05:00,0.0831,0.0713,0.0759,
江戸川 (Edogawa),2014-03-25,03:01～04:00,0.0833,0.0715,0.0764,
江戸川 (Edogawa),2014-03-25,02:01～03:00,0.0819,0.0721,0.0755,
江戸川 (Edogawa),2014-03-25,01:01～02:00,0.0807,0.0727,0.0761,
江戸川 (Edogawa),2014-03-25,00:01～01:00,0.0815,0.0720,0.0760,
江戸川 (Edogawa),2014-03-24,23:01～24:00,0.0818,0.0717,0.0757,
江戸川 (Edogawa),2014-03-24,22:01～23:00,0.0803,0.0714,0.0756,
江戸川 (Edogawa),2014-03-24,21:01～22:00,0.0808,0.0719,0.0763,
江戸川 (Edogawa),2014-03-24,20:01～21:00,0.0827,0.0718,0.0760,
江戸川 (Edogawa),2014-03-24,19:01～20:00,0.0798,0.0718,0.0750,
江戸川 (Edogawa),2014-03-24,18:01～19:00,0.0796,0.0714,0.0752,
江戸川 (Edogawa),2014-03-24,17:01～18:00,0.0810,0.0727,0.0762,
江戸川 (Edogawa),2014-03-24,16:01～17:00,0.0821,0.0716,0.0761,
江戸川 (Edogawa),2014-03-24,15:01～16:00,0.0819,0.0712,0.0763,
江戸川 (Edogawa),2014-03-24,14:01～15:00,0.0809,0.0720,0.0761,
江戸川 (Edogawa),2014-03-24,13:01～14:00,0.0838,0.0720,0.0766,
江戸川 (Edogawa),2014-03-24,12:01～13:00,0.0810,0.0715,0.0759,
江戸川 (Edogawa),2014-03-24,11:01～12:00,0.0838,0.0732,0.0771,
江戸川 (Edogawa),2014-03-24,10:01～11:00,0.0817,0.0728,0.0763,
江戸川 (Edogawa),2014-03-24,09:01～10:00,0.0838,0.0720,0.0761,
江戸川 (Edogawa),2014-03-24,08:01～09:00,0.0795,0.0713,0.0756,
江戸川 (Edogawa),2014-03-24,07:01～08:00,0.0804,0.0710,0.0752,
江戸川 (Edogawa),2014-03-24,06:01～07:00,0.0805,0.0719,0.0747,
江戸川 (Edogawa),2014-03-24,05:01～06:00,0.0801,0.0709,0.0746,
江戸川 (Edogawa),2014-03-24,04:01～05:00,0.0802,0.0711,0.0751,
江戸川 (Edogawa),2014-03-24,03:01～04:00,0.0786,0.0720,0.0747,
江戸川 (Edogawa),2014-03-24,02:01～03:00,0.0809,0.0709,0.0748,
江戸川 (Edogawa),2014-03-24,01:01～02:00,0.0803,0.0715,0.0750,
江戸川 (Edogawa),2014-03-24,00:01～01:00,0.0815,0.0706,0.0749,
